Weather History for PHKO - October, 2014

Change the Weather History Date:

Wednesday, October 22, 2014

  Actual Average Record
Temperature  
Mean Temperature 82 °F -  
Max Temperature 86 °F 83 °F 90 °F (1983)
Min Temperature 78 °F 72 °F 70 °F (1992)
Cooling Degree Days 17    
Growing Degree Days 32 (Base 50)    
Moisture  
Dew Point 72 °F    
Average Humidity 74    
Maximum Humidity 81    
Minimum Humidity 63    
Precipitation  
Precipitation 0.00 in - - ()
Sea Level Pressure  
Sea Level Pressure 29.98 in    
Wind  
Wind Speed 5 mph (ESE)    
Max Wind Speed 13 mph    
Max Gust Speed -    
Visibility 10 miles    
Events      
Averages and records for this station are not official NWS values.
T = Trace of Precipitation, MM = Missing Value Source: NWS Daily Summary

Daily Weather History Graph

Daily Weather History Graph

Search for Another Location

Airport or City:

Trip Planner

Search our weather history database for the weather conditions in past years. The results will help you decide how hot, cold, wet, or windy it might be!

Date:

Astronomy

Oct. 22, 2014 Rise Set
Actual Time 6:21 AM HST 5:55 PM HST
Civil Twilight 5:58 AM HST 6:17 PM HST
Nautical Twilight 5:33 AM HST 6:43 PM HST
Astronomical Twilight 5:07 AM HST 7:09 PM HST
Moon 5:22 AM HST (10/22) 5:23 PM HST (10/22)
Length of Visible Light 12h 19m
Length of Day
11h 34m
Waning Crescent, 1% of the Moon is Illuminated
Oct 22
Waning Crescent
Oct 23
New
Oct 30
First Quarter
Nov 6
Full
Nov 14
Last Quarter

Hourly Weather History & Observations

Time (HST) Temp. Heat Index Dew Point Humidity Pressure Visibility Wind Dir Wind Speed Gust Speed Precip Events Conditions
12:53 AM 78.1 °F - 72.0 °F 81% 29.98 in 10.0 mi ESE 3.5 mph - N/A   Clear
1:53 AM 78.1 °F - 71.1 °F 79% 29.97 in 10.0 mi ESE 4.6 mph - N/A   Partly Cloudy
2:53 AM 78.1 °F - 72.0 °F 81% 29.96 in 10.0 mi ESE 4.6 mph - N/A   Mostly Cloudy
3:53 AM 79.0 °F - 72.0 °F 79% 29.96 in 10.0 mi Calm Calm - N/A   Overcast
4:08 AM 78.8 °F - 71.6 °F 78% 29.96 in 10.0 mi Calm Calm - N/A   Overcast
4:20 AM 78.8 °F - 71.6 °F 78% 29.95 in 10.0 mi East 3.5 mph - N/A   Overcast
4:30 AM 78.8 °F - 71.6 °F 78% 29.95 in 10.0 mi East 3.5 mph - N/A   Overcast
4:53 AM 78.1 °F - 72.0 °F 81% 29.96 in 10.0 mi Calm Calm - N/A   Overcast
5:53 AM 78.1 °F - 72.0 °F 81% 29.97 in 10.0 mi Calm Calm - N/A   Overcast
6:46 AM 78.8 °F - 71.6 °F 78% 29.98 in 10.0 mi ENE 3.5 mph - N/A   Mostly Cloudy
6:53 AM 78.1 °F - 72.0 °F 81% 29.99 in 10.0 mi East 4.6 mph - N/A   Mostly Cloudy
7:18 AM 78.8 °F - 71.6 °F 78% 29.99 in 10.0 mi ENE 3.5 mph - N/A   Mostly Cloudy
7:53 AM 80.1 °F 83.8 °F 72.0 °F 76% 30.00 in 10.0 mi Calm Calm - N/A   Scattered Clouds
8:53 AM 82.0 °F 87.4 °F 73.0 °F 74% 30.02 in 10.0 mi West 6.9 mph - N/A   Scattered Clouds
9:53 AM 84.9 °F 91.4 °F 73.0 °F 67% 30.02 in 10.0 mi WNW 9.2 mph - N/A   Scattered Clouds
10:53 AM 84.9 °F 91.4 °F 73.0 °F 67% 30.01 in 10.0 mi WNW 9.2 mph - N/A   Partly Cloudy
11:53 AM 86.0 °F 93.0 °F 73.0 °F 65% 29.99 in 10.0 mi WNW 11.5 mph - N/A   Clear
12:53 PM 86.0 °F 93.0 °F 73.0 °F 65% 29.96 in 10.0 mi WNW 12.7 mph - N/A   Clear
1:53 PM 86.0 °F 92.2 °F 72.0 °F 63% 29.95 in 10.0 mi WNW 11.5 mph - N/A   Clear
2:53 PM 86.0 °F 93.0 °F 73.0 °F 65% 29.94 in 10.0 mi WNW 10.4 mph - N/A   Partly Cloudy
3:53 PM 84.0 °F 89.6 °F 72.0 °F 67% 29.94 in 10.0 mi West 8.1 mph - N/A   Partly Cloudy
4:53 PM 82.9 °F 88.0 °F 72.0 °F 69% 29.94 in 10.0 mi WSW 4.6 mph - N/A   Scattered Clouds
5:53 PM 82.0 °F 86.3 °F 71.1 °F 69% 29.96 in 10.0 mi SW 4.6 mph - N/A   Partly Cloudy
6:53 PM 82.0 °F 86.3 °F 71.1 °F 69% 29.97 in 10.0 mi South 8.1 mph - N/A   Clear
7:53 PM 81.0 °F 85.2 °F 72.0 °F 74% 29.99 in 10.0 mi SE 8.1 mph - N/A   Mostly Cloudy
8:53 PM 80.1 °F 83.6 °F 71.1 °F 74% 30.00 in 10.0 mi ESE 6.9 mph - N/A   Clear
9:53 PM 80.1 °F 83.6 °F 71.1 °F 74% 30.00 in 10.0 mi SE 9.2 mph - N/A   Clear
10:53 PM 79.0 °F - 71.1 °F 77% 30.00 in 10.0 mi East 6.9 mph - N/A   Clear
11:53 PM 78.1 °F - 71.1 °F 79% 29.99 in 10.0 mi ESE 6.9 mph - N/A   Clear